Regional Weather Roundup
Issued by NWS Columbia, SC

Home | Current Version | Previous Version | Text Only | Print | Product List | Glossary On
Versions: 1 2 3 4 5 6 7 8 9 10 11 12 13 14 15 16 17 18 19 20 21 22 23 24 25 26 27 28 29 30 31 32 33 34 35 36 37 38 39 40 41 42 43 44 45 46 47 48 49 50
000
ASUS42 KCAE 110610
RWRCAE
REGIONAL WEATHER ROUNDUP
NATIONAL WEATHER SERVICE COLUMBIA SC
200 AM EDT FRI JUL 11 2014

NOTE: "FAIR" INDICATES FEW OR NO CLOUDS BELOW 12,000 FEET WITH NO
SIGNIFICANT WEATHER AND/OR OBSTRUCTIONS TO VISIBILITY.

NOT ALL STATIONS ARE QUALITY CONTROLLED BY THE NATIONAL
WEATHER SERVICE. USE DATA WITH CAUTION...ESPECIALLY
DEWPOINT OBSERVATIONS.

SCZ001>056-GAZ040-063>065-077-110700-
...UPSTATE SOUTH CAROLINA...

CITY           SKY/WX    TMP DP  RH WIND       PRES   REMARKS
ANDERSON       MOCLDY    72  70  93 CALM      30.12F
6HR MIN TEMP:  72; 6HR MAX TEMP:  80;

LIBERTY        FAIR      69  32  25 E3        30.13F
6HR MIN TEMP:  69; 6HR MAX TEMP:  87;

SPARTANBURG    FAIR      72  72 100 N5        30.13S
CLEMSON        MOCLDY    75  68  78 CALM      30.14F
6HR MIN TEMP:  74; 6HR MAX TEMP:  83;

GREENVILLE     PTCLDY    73  68  84 E6        30.15S
6HR MIN TEMP:  72; 6HR MAX TEMP:  80;

GREENWOOD      LGT RAIN  72  70  93 E3        30.13F
6HR MIN TEMP:  71; 6HR MAX TEMP:  76; 6HR PCP: TRACE;

GREER          CLOUDY    70  69  97 NE3       30.13S
6HR MIN TEMP:  70; 6HR MAX TEMP:  77;

ROCK HILL      CLEAR     69  68  96 CALM      30.13F
6HR MIN TEMP:  69; 6HR MAX TEMP:  77; 6HR PCP: TRACE;

CHESTER        FAIR      73  73 100 CALM      30.14S FOG
LAURENS        FAIR      72 N/A N/A CALM      30.13F HAZE


...CENTRAL SOUTH CAROLINA...

CITY           SKY/WX    TMP DP  RH WIND       PRES   REMARKS
COLUMBIA APT   MOCLDY    75  72  90 S6        30.09S
6HR MIN TEMP:  74; 6HR MAX TEMP:  90; 6HR PCP:  1.32;

COLUMBIA OWENS MOCLDY    72  69  90 CALM      30.11R
6HR MIN TEMP:  70; 6HR MAX TEMP:  90; 6HR PCP:  0.83;

DARLINGTON     PTCLDY    72  66  83 CALM      30.12S
6HR MIN TEMP:  72; 6HR MAX TEMP:  79;

FLORENCE       CLOUDY    70  68  93 CALM      30.09F
6HR MIN TEMP:  70; 6HR MAX TEMP:  75; 6HR PCP:  1.21;

MCENTIRE ANGB  CLOUDY    73  73 100 SE5       30.11R
6HR MIN TEMP:  73; 6HR MAX TEMP:  85; 6HR PCP:  0.12;

ORANGEBURG     CLOUDY    73  70  90 SW6       30.11F
6HR MIN TEMP:  73; 6HR MAX TEMP:  87; 6HR PCP:  0.02;

SUMTER SHAW    CLOUDY    73  72  94 E3        30.09F
6HR MIN TEMP:  72; 6HR MAX TEMP:  87; 6HR PCP:  1.87;

NEWBERRY       FAIR      72  72 100 CALM      30.14F
AIKEN          FAIR      73  73 100 SE6       30.15R
BARNWELL       FAIR      73  73 100 E3        30.13R
MANNING        FAIR      73 N/A N/A CALM      30.11F
CAMDEN         FAIR      73  72  94 CALM      30.10F
LANCASTER      RAIN      70  70 100 CALM      30.12F
WINNSBORO      FAIR      70  70 100 N3        30.10F


...EASTERN AND COASTAL SOUTH CAROLINA...

CITY           SKY/WX    TMP DP  RH WIND       PRES   REMARKS
MYRTLE BEACH   CLOUDY    72  68  88 W6        30.11F
6HR MIN TEMP:  72; 6HR MAX TEMP:  82; 6HR PCP:  0.37;

N MYRTLE BCH   RAIN      72  68  87 W7        30.11F
6HR MIN TEMP:  72; 6HR MAX TEMP:  82; 6HR PCP:  1.25;

CONWAY         LGT RAIN  70  70 100 CALM      30.11F
MARION         FAIR      70  70 100 S7        30.11S
HARTSVILLE     MOCLDY    72  70  94 CALM      30.11F
FLORENCE       CLOUDY    70  68  93 CALM      30.09F
6HR MIN TEMP:  70; 6HR MAX TEMP:  75; 6HR PCP:  1.21;

DARLINGTON     PTCLDY    72  66  83 CALM      30.12S
6HR MIN TEMP:  72; 6HR MAX TEMP:  79;

CHARLESTON APT CLOUDY    77  69  76 SW3       30.12S
6HR MIN TEMP:  76; 6HR MAX TEMP:  84; 6HR PCP: TRACE;

MOUNT PLEASANT FAIR      79  70  73 CALM      30.12S
WALTERBORO     MOCLDY    75 N/A N/A CALM      30.13S
BEAUFORT       MOCLDY    76  71  85 NW3       30.11F
6HR MIN TEMP:  76; 6HR MAX TEMP:  84;



...EASTERN GEORGIA...

CITY           SKY/WX    TMP DP  RH WIND       PRES   REMARKS
AUGUSTA BUSH F PTCLDY    72  71  97 S3        30.10S
6HR MIN TEMP:  72; 6HR MAX TEMP:  88;

AUGUSTA DANIEL PTCLDY    75  72  90 SE6       30.12R
6HR MIN TEMP:  75; 6HR MAX TEMP:  87;

THOMSON        PTCLDY    74  74 100 CALM      30.15R
6HR MIN TEMP:  74; 6HR MAX TEMP:  82;

WASHINGTON     MOCLDY    77 N/A N/A CALM      30.11S
CLAXTON        FAIR     N/A N/A N/A CALM      30.13R
SYLVANIA       CLOUDY    73  73 100 CALM      30.13S FOG
6HR MIN TEMP:  73; 6HR MAX TEMP:  78;

STATESBORO     MOCLDY    73  73 100 CALM      30.11F
6HR MIN TEMP:  72; 6HR MAX TEMP:  74;

SAVANNAH       CLOUDY    75  72  90 CALM      30.12R
6HR MIN TEMP:  74; 6HR MAX TEMP:  75; 6HR PCP:  0.10;



...SOUTHERN NORTH CAROLINA...

CITY           SKY/WX    TMP DP  RH WIND       PRES   REMARKS
CHARLOTTE      PTCLDY    71  67  87 S3        30.14S
6HR MIN TEMP:  71; 6HR MAX TEMP:  77;

MONROE         CLOUDY    72  70  93 S3        30.13S
6HR MIN TEMP:  70; 6HR MAX TEMP:  77;

WADESBORO      CLOUDY    73  71  96 S5        30.11F
6HR MIN TEMP:  72; 6HR MAX TEMP:  75;

ROCKINGHAM       N/A     72  72 100 CALM      30.11F FOG
RUTHERFORDTON  CLOUDY    67  67  99 NE5       30.15F
6HR MIN TEMP:  66; 6HR MAX TEMP:  77;

ASHEVILLE      CLOUDY    67  66  97 SW3       30.20F FOG
6HR MIN TEMP:  67; 6HR MAX TEMP:  75; 6HR PCP: TRACE;


$$



USA.gov is the U.S. government's official web portal to all federal, state and local government web resources and services.